Regional Weather Roundup
Issued by NWS

Home | Current Version | Previous Version | Graphics & Text | Print | Product List | Glossary On
Versions: 1 2 3 4 5 6 7 8 9 10 11 12 13 14 15 16 17 18 19 20 21 22 23 24 25 26 27 28 29 30 31 32 33 34 35 36 37 38 39 40 41 42 43 44 45 46 47 48 49 50
000
ASUS43 KMPX 161010
RWRMN
WEATHER ROUNDUP FOR MINNESOTA
NATIONAL WEATHER SERVICE TWIN CITIES/CHANHASSEN MN
400 AM CST MON JAN 16 2017


NOTE: "FAIR" INDICATES FEW OR NO CLOUDS BELOW 12,000 FEET WITH NO
SIGNIFICANT WEATHER AND/OR OBSTRUCTIONS TO VISIBILITY. N/A MEANS
CURRENT SKY AND/OR WEATHER CONDITIONS ARE NOT AVAILABLE.

MNZ060>063-068>070-161100-
   Twin Cities Metro

CITY           SKY/WX    TMP DP  RH WIND       PRES   REMARKS
TWIN CITIES    MOCLDY    16  11  80 E5        30.19F WCI   9
ST PAUL        CLOUDY    12  11  95 CALM      30.21F FOG
CRYSTAL        PTCLDY    14  11  87 SE5       30.17F FOG     WCI   6
BLAINE         CLOUDY    18  18 100 S9        30.17F WCI   6
LAKEVILLE      CLOUDY    12  12 100 CALM      30.18F FOG
EDEN PRAIRIE   PTCLDY    17  12  80 CALM      30.17F
SOUTH ST PAUL  PTCLDY    12  10  90 CALM      30.20S
LAKE ELMO      FAIR       9   7  92 CALM      30.20F FOG
$$
MNZ001>005-007-008-013>017-022>024-027-028-161100-
   Northwest Minnesota

CITY           SKY/WX    TMP DP  RH WIND       PRES   REMARKS
BEMIDJI        CLOUDY    13  11  94 CALM      30.04F
HALLOCK        CLOUDY     3   0  85 S9        30.01F WCI -11
ROSEAU         CLOUDY    10   7  85 SW6       30.02S WCI   1
WARROAD        CLOUDY    10   7  85 SW7       30.01S WCI   0
THIEF RVR FALL CLOUDY     9   5  84 S7        30.06R WCI  -2
CROOKSTON      CLOUDY     9   5  85 S8        30.08S WCI  -4
FOSSTON        CLOUDY    12   9  85 S10       30.05F WCI  -1
DETROIT LAKES  CLOUDY    16  14  93 CALM      30.09S FOG
MOORHEAD       CLOUDY     7   5  92 SE8       30.10F WCI  -6
PARK RAPIDS    CLOUDY     6   0  76 SE3       30.07F HAZE
MAHNOMEN       FAIR      17  14  88 S10       30.06F WCI   4
$$
MNZ006-009>011-018-025>026-161100-
   North Central Minnesota

CITY           SKY/WX    TMP DP  RH WIND       PRES   REMARKS
BAUDETTE       CLOUDY     9   5  84 CALM      30.02S
FLAG ISLAND    CLOUDY     5   1  85 SE10      30.00F WCI -10
INTL FALLS     CLOUDY     5   1  83 CALM      30.04S
WASKISH        CLOUDY    18  14  86 W6        30.05R WCI   9
BIG FORK       CLOUDY    12  10  92 S3        30.05F
LONGVILLE      CLOUDY     3   0  85 CALM      30.09F
GRAND RAPIDS   CLOUDY    12  11  95 S6        30.10F FOG     WCI   3
CRANE LAKE     CLOUDY    18  14  86 CALM      30.08S
ORR            CLOUDY    16  12  86 CALM      30.04F
COOK           CLOUDY    12  10  92 CALM      30.07F
WALKER         FAIR      13  11  92 S5        30.07S WCI   5
$$
MNZ012-019>021-037-161100-
   Northeast Minnesota

CITY           SKY/WX    TMP DP  RH WIND       PRES   REMARKS
DULUTH         CLOUDY    16  14  92 W9        30.10S FOG     WCI   4
ELY            CLOUDY    16  14  93 S3        30.07F
HIBBING        CLOUDY    -3  -4  95 CALM      30.09F
EVELETH        CLOUDY     2  -2  82 CALM      30.10S
DULUTH HARBOR  CLOUDY    18  16  93 CALM      30.17S
TWO HARBORS    CLOUDY    16  10  79 SW6       30.10S HAZE    WCI   7
SILVER BAY     CLEAR     16  14  93 CALM      30.08F
GRAND MARAIS     N/A     24  14  65 W5        30.10S WCI  18
G MARAIS ARPRT CLOUDY    18   9  68 SW5       30.03S WCI  11
$$
MNZ029>031-032-039>041-046>048-054>057-064-161100-
   West Central Minnesota

CITY           SKY/WX    TMP DP  RH WIND       PRES   REMARKS
FERGUS FALLS   CLOUDY    18  14  86 SE5       30.15F WCI  11
WHEATON        PTCLDY    12  10  92 CALM      30.12F
MORRIS         PTCLDY    12  10  92 SE8       30.10S WCI   1
ALEXANDRIA     CLOUDY    14  12  92 S3        30.10S FOG
ELBOW LAKE     FAIR      15  14  94 E7        30.10F FOG     WCI   5
WADENA         CLOUDY     7   3  85 CALM      30.09S FOG
GLENWOOD       CLOUDY    14  12  92 SW8       30.11S WCI   3
APPLETON       CLOUDY    16  12  86 S7        30.11F WCI   6
ORTONVILLE     CLOUDY    12   9  85 CALM      30.10S
MADISON        CLOUDY    16  10  79 S5        30.11F WCI   9
WILLMAR        FAIR      12  10  92 CALM      30.14S
$$
MNZ033>034-036-042>043-049>051-058-059-161100-
   Central Minnesota

CITY           SKY/WX    TMP DP  RH WIND       PRES   REMARKS
ST CLOUD       CLOUDY    13  12  96 SE5       30.13F FOG     WCI   5
SAUK CENTRE    FAIR      10   8  92 CALM      30.11S
PAYNESVILLE    CLOUDY    17  15  92 S7        30.12F WCI   7
AITKIN         CLOUDY     3  -2  78 CALM      30.11S
PINE RIVER     CLOUDY     1  -2  85 CALM      30.14R
BRAINERD       CLOUDY     6   4  91 CALM      30.13R FOG
STAPLES        CLOUDY     1   0  92 CALM      30.11S
LONG PRAIRIE   FOG        7   5  92 CALM      30.12R VSB 1/2
LITTLE FALLS   CLOUDY     3   0  85 CALM      30.14R
LITCHFIELD     CLOUDY    18  16  93 CALM      30.14F
BUFFALO        CLOUDY    19  16  88 S5        30.17F WCI  12
MAPLE LAKE     CLOUDY    13  12  95 S5        30.16F FOG     WCI   5
HUTCHINSON     CLOUDY    18  16  92 SE3       30.16S
$$
MNZ037-044-045-052-053-161100-
   East Central Minnesota

CITY           SKY/WX    TMP DP  RH WIND       PRES   REMARKS
PRINCETON      CLOUDY    16  14  93 CALM      30.14F
MORA           CLOUDY     1  -2  85 CALM      30.17S
CAMBRIDGE      CLOUDY    19  12  73 CALM      30.15S
RUSH CITY        N/A     14  10  85 S3        30.17F
MOOSE LAKE     CLOUDY     9   5  85 CALM      30.14S FOG
HINCKLEY       FAIR       1   0  92 CALM      30.16S
CLOQUET        CLOUDY    16  14  93 SW3       30.12R FOG
MCGREGOR       CLOUDY    10   9  92 CALM      30.13S
$$
MNZ071>073-080-081-089-090-097-098-161100-
   Southwest Minnesota

CITY           SKY/WX    TMP DP  RH WIND       PRES   REMARKS
MONTEVIDEO     CLOUDY    16  12  86 S3        30.14S
GRANITE FALLS  CLOUDY    19  15  84 SE9       30.14F WCI   9
CANBY            N/A     29  20  68 SW13      30.11F WCI  19
MARSHALL       CLOUDY    23  16  74 S6        30.13F WCI  16
REDWOOD FALLS  CLOUDY    19  15  84 S7        30.14F WCI  10
OLIVIA         CLOUDY    18  16  93 S7        30.13F WCI   8
PIPESTONE      CLOUDY    25  19  80 S6        30.10F WCI  18
WINDOM         CLOUDY    23  19  86 S5        30.13F WCI  17
WORTHINGTON    CLOUDY    25  22  88 S5        30.12F WCI  19
JACKSON        CLOUDY    27  21  80 CALM      30.14S
TRACY          CLOUDY    25  20  80 S9        30.12S WCI  16
SLAYTON        PTCLDY    20  17  88 S3        30.12F
$$
MNZ065>067-074>077-082>085-091>093-161100-
   South Central Minnesota

CITY           SKY/WX    TMP DP  RH WIND       PRES   REMARKS
MANKATO        CLOUDY    19  15  84 SE6       30.18F WCI  11
NEW ULM        CLOUDY    18  14  86 S5        30.16F WCI  11
ST JAMES       CLOUDY    19  18  93 SE5       30.17F WCI  13
FAIRMONT       CLOUDY    26  23  88 S7        30.16F WCI  18
GLENCOE        PTCLDY    21  18  89 S6        30.15F WCI  13
FARIBAULT      CLOUDY    19  16  86 CALM      30.18S
OWATONNA       CLOUDY    23  16  74 SE3       30.17S
WASECA         CLOUDY    23  18  80 SE7       30.18F WCI  15
ALBERT LEA     CLOUDY    27  19  74 S9        30.17F WCI  17
$$
MNZ078>079-086>088-094>096-161100-
   Southeast Minnesota

CITY           SKY/WX    TMP DP  RH WIND       PRES   REMARKS
ROCHESTER      CLOUDY    23  17  78 S10       30.18F WCI  12
RED WING       CLOUDY    14  10  85 E3        30.21S FOG
STANTON        CLOUDY    21  16  79 S5        30.18S WCI  15
DODGE CENTER   CLOUDY    19  14  79 CALM      30.17S
WINONA           N/A     14  12  92 CALM      30.24F
AUSTIN         CLOUDY    25  18  74 S7        30.17F WCI  17
PRESTON        CLOUDY    22  17  79 S8        30.19F WCI  13
$$
ABBREVIATIONS USED IN REMARKS
   TC - TEMPERATURES IN CELSIUS
  WCI - WIND CHILL INDEX
   HX - HEAT INDEX
  VSB - VISIBILITY
$$



USA.gov is the U.S. government's official web portal to all federal, state and local government web resources and services.